Flag for U.S.A. Weather past 2 weeks in Escondido, California, U.S.A.

Now
67 °F

Sunny.


Feels Like: 67 °F
Forecast: 53 / 70 °F
Wind: No wind

Location: McClellan-Palomar Airport

Current Time: Jan 28, 2015 at 5:03:51 PM

Latest Report: Jan 28, 2015 at 3:53 PM


Visibility: 10 mi

Pressure: 30.04 "Hg

Humidity: 55%

Dew point: 50 °F

Location of EscondidoLocation

Historic Weather in Escondido — Graph

°F

Escondido temperature yesterday

Maximum temperature yesterday: 70 °F (at 11:53 AM)
Minimum temperature yesterday: 53 °F (at 2:53 AM)
Average temperature yesterday: 60 °F

Past Weeks' High & Low Weather Summary

 TemperatureHumidityPressure
High81 °F (Jan 24, 12:53 PM)97% (Jan 19, 11:04 PM)30.24 "Hg (Jan 19, 11:04 PM)
Low46 °F (Jan 22, 6:53 AM)9% (Jan 23, 11:53 AM)29.92 "Hg (Jan 20, 4:53 PM)
Average60 °F53%30.09 "Hg
* Reported Jan 13 3:53 PM — Jan 28 3:53 PM, Escondido, Weather by CustomWeather, © 2014

Note: Actual official high and low records may vary slightly from our data, if they occured in-between our weather recording intervals... More about our weather records

Advertising

Escondido weather history for previous 24 hours

 ConditionsComfort  
Time TempWeatherWind HumidityBarometerVisibility
3:53 PM
Jan 28
67 °FSunny.No wind55%30.04 "Hg10 mi
2:53 PM65 °FSunny.3 mph66%30.06 "Hg10 mi
1:53 PM64 °FSunny.6 mph68%30.06 "Hg10 mi
12:53 PM66 °FSunny.6 mph61%30.05 "Hg10 mi
11:53 AM74 °FSunny.6 mph32%30.06 "Hg10 mi
10:53 AM74 °FSunny.No wind35%30.09 "Hg10 mi
9:53 AM68 °FSunny.No wind51%30.10 "Hg10 mi
8:53 AM63 °FSunny.No wind58%30.11 "Hg10 mi
7:53 AM56 °FSunny.No wind72%30.12 "Hg10 mi
6:53 AM52 °FSunny.No wind80%30.11 "Hg10 mi
5:53 AM53 °FClear.5 mph77%30.11 "Hg10 mi
4:53 AM54 °FClear.No wind74%30.11 "Hg10 mi
3:53 AM53 °FClear.No wind80%30.09 "Hg10 mi
2:53 AM55 °FClear.3 mph74%30.12 "Hg10 mi
1:53 AM53 °FClear.No wind80%30.14 "Hg10 mi
12:53 AM54 °FClear.No wind80%30.15 "Hg10 mi
11:53 PM
Jan 27
55 °FClear.No wind77%30.14 "Hg10 mi
10:53 PM56 °FClear.No wind77%30.14 "Hg10 mi
9:53 PM56 °FClear.No wind81%30.15 "Hg10 mi
8:53 PM57 °FClear.No wind87%30.15 "Hg9 mi
7:53 PM59 °FClear.No wind84%30.16 "Hg8 mi
6:53 PM60 °FClear.No wind86%30.15 "Hg9 mi
5:53 PM61 °FClear.No wind75%30.14 "Hg10 mi
Weather by CustomWeather, © 2014

See weather overviewHow to use our weather pages